IRS 1C

导读 | 星芒AI

IRS 1C 是印度遥感卫星系列中的一颗重要卫星,由印度空间研究组织(ISRO)于1998年发射。该卫星主要用于地球资源观测,具备多光谱和高分辨率成像能力,广泛应用于农业、林业、水资源管理和环境监测等领域。IRS 1C 搭载了 LISS-III 和 WIRES 传感器,能够提供 23.5 米和 5.8 米分辨率的图像数据。其成功运行标志着印度在遥感技术领域的重大进展,并为国家资源管理和灾害监测提供了关键支持。

基本信息
目录编号:
23751
目录名称:
IRS 1C
国际标识:
1995-072A
轨道中心:
EARTH
卫星名称:
IRS 1C
卫星全名:
--
卫星状态:
在轨 (已飞行10945 天)
发射日期:
1995-12-28 UTC
国别 :
印度 (IN)
星等 :
--
轨道信息
数据来源 国际轨道数据
星历时间: 2025-12-15T06:21:15+0800
19小时前
查看轨道信息
半长轴: 7191.652km
偏心率: 0.0001063
轨道倾角: 99.031°
近地点辐角 97.515°
升交点赤经 358.238°
平近点角 262.615°
近地点: 812.752km
远地点: 814.282km
周期: 101.159分钟
每日圈数: 14.235078
详细信息
使用方式:
暂无
2D轨道图
3D轨道图
轨道高度分析图
轨道倾角分析图
轨道综合分析图
查看轨道综合分析图